Regional Weather Roundup
Issued by NWS Albany, NY

Home | Current Version | Previous Version | Graphics & Text | Print | Product List | Glossary On
Versions: 1 2 3 4 5 6 7 8 9 10 11 12 13 14 15 16 17 18 19 20 21 22 23 24 25 26 27 28 29 30 31 32 33 34 35 36 37 38 39 40 41 42 43 44 45 46 47 48 49 50
944
ASUS41 KALY 160510
RWRALY

NEW YORK STATE HOURLY WEATHER ROUNDUP
NATIONAL WEATHER SERVICE ALBANY NY
1200 AM EST TUE JAN 16 2018

NOTE: "FAIR" INDICATES FEW OR NO CLOUDS BELOW 12,000 FEET WITH NO
SIGNIFICANT WEATHER AND/OR NO OBSTRUCTIONS TO VISIBILITY.

NYZ032-033-038>043-046>054-057>066-NYZ062>081-082-084-160600-
EAST


CITY           SKY/WX    TMP DP  RH WIND       PRES   REMARKS
ALBANY         CLOUDY    14   5  67 N3        30.51S
GLENS FALLS    CLOUDY    11   5  77 E3        30.51S
POUGHKEEPSIE   CLOUDY    21  11  65 CALM      30.50F
NEWBURGH       CLOUDY    21  16  79 CALM      30.48F
MONTGOMERY     CLOUDY    21  12  68 N5        30.47F WCI  15
WHITE PLAINS   FAIR      19  11  70 NE3       30.46F
ISLIP          CLOUDY    25  21  85 CALM      30.49F
NEW YORK CITY  MOCLDY    24  16  71 E6        30.49F WCI  17
CENTRAL PARK   CLOUDY    25  17  72 VRB5      30.50F WCI  19
$$

NYZ005>009-017-018-044>046-055-056-160600-
CENTRAL


CITY           SKY/WX    TMP DP  RH WIND       PRES   REMARKS
FULTON         LGT SNOW  18  14  84 SE8       30.38F VSB 1   WCI   8
SYRACUSE       LGT SNOW  16  16 100 E8        30.39F VSB 1   WCI   5
ROME           LGT SNOW  16  13  88 E8        30.44F FOG     WCI   5
ELMIRA         LGT SNOW  22  20  92 CALM      30.35F FOG
BINGHAMTON     CLOUDY    19  15  84 S7        30.32F WCI  10
MONTICELLO     CLOUDY    16  12  84 CALM      30.41S
$$

NYZ026>034-041>043-087-160600-
NORTH


CITY           SKY/WX    TMP DP  RH WIND       PRES   REMARKS
WATERTOWN      LGT SNOW  26   7  44 NE6       30.39F WCI  19
FORT DRUM      NOT AVBL
OGDENSBURG     LGT SNOW   4   1  83 NE8       30.45F WCI  -9
MASSENA        CLOUDY     4   0  83 NE13      30.50F WCI -13
SARANAC LAKE   CLOUDY     4   0  83 CALM      30.33F
PLATTSBURGH    MOCLDY    -5 -10  79 CALM      30.53F
$$

NYZ001>004-010>016-019>021-085-160600-
WEST


CITY           SKY/WX    TMP DP  RH WIND       PRES   REMARKS
NIAGARA FALLS  CLOUDY    21  16  81 SE3       30.29F
BUFFALO        FLURRIES  20  16  84 SE6       30.30F WCI  12
DUNKIRK        FLURRIES  23  17  78 S10       30.30S WCI  12
JAMESTOWN      LGT SNOW  17  15  92 S7        30.23F FOG     WCI   8
WELLSVILLE     LGT SNOW  19  15  84 SE6       30.24F FOG     WCI  11
ROCHESTER      LGT SNOW  22  19  89 SW6       30.34F FOG     WCI  14
PENN YAN       LGT SNOW  22  17  81 S10       30.33F WCI  11
$$

             KEY
       WCI = WIND CHILL INDEX
       VSB = VISIBILITY
       HX  = HEAT INDEX
$$




USA.gov is the U.S. government's official web portal to all federal, state and local government web resources and services.